Tracking 19800 objects as of 24-Jul-2019
HD Live streaming from Space Station
objects crossing your sky now

FENGYUN 1C DEB

Track FENGYUN 1C DEB now!
10-day predictions


NORAD ID: 30659
Int'l Code: 1999-025APR
Perigee: 522.5 km
Apogee: 734.3 km
Inclination: 99.1 °
Period: 97.1 minutes
Semi major axis: 6999 km
RCS: 0.009 m2 (small)
Launch date: May 10, 1999
Source: People's Republic of China (PRC)
Launch site: Taiyaun Space Center, China (TSC)

Note: This is SATELLITE DEBRIS
aabbcc
Your satellite tracking list
Your tracking list is empty




NASA's NSSDC Master Catalog

Two Line Element Set (TLE):
1 30659U 99025APR 19203.92933815  .00000674  00000-0  77330-4 0  9994
2 30659  99.0555   0.0784 0151303 281.3509 231.2977 14.82550305667977
Source of the keplerian elements: AFSPC